EHI
0 0 0 0 0 0 0 0 0 0 0 0 0 0 0 0 0 0 0 0 0 0 0 0 0 0 0 0 0 0 0 0 0 0 0 0 0 0 0 0 0 0 0
0 0 0 0 0 0 0 0 0 0 0 0 0 0 0 0 0 0 0 0 0 0 0 0 0 0 0 0 0 0 0 0 0 0 0 0 0 0 0 0 0 0 0
0 0 0 0 0 0 0 0 0 0 0 0 0 0 0 0 0 0 0 0 0 0 0 0 0 0 0 0 0 0 0 0 0 0 0 0 0 0 0 0 0 0 0
0 0 0 0 0 0 0 0 0 0 0 0 0 0 0 0 0 0 0 0 0 0 0 0 0 0 0 0 0 0 0 0 0 0 0 0 0 0 0 0 0 0 0
0 0 0 0 0 0 0 0 0 0 0 0 0 0 0 0 0 0 0 0 0 0 0 0 0 0 0 0 0 0 0 0 0 0 0 0 0 0 0 0 0 0 0
0 0 0 0 0 0 0 0 0 0 0 0 0 0 0 0 0 0 0 0 0 0 0 0 0 0 0 0 0 0 0 0 0 0 0 0 0 0 0 0 0 0 0
0 0 0 0 0 0 0 0 0 0 0 0 0 0 0 0 0 0 0 0 0 0 0 0 0 0 0 0 0 0 0 0 0 0 0 0 0 0 0 0 0 0 0
0 0 0 0 0 0 0 0 0 0 0 0 0 0 0 0 0 0 0 0 0 0 0 0 0 0 0 0 0 0 0 0 0 0 0 0 0 0 0 0 0 0 0
0 0 0 0 0 0 0 0 0 0 0 0 0 0 0 0 0 0 0 0 0 0 0 0 0 0 0 0 0 0 0 0 0 0 0 0 0 0 0 0 0 0 0
0 0 0 0 0 0 0 0 0 0 0 0 0 0 0 0 0 0 0 0 0 0 0 0 0 0 0 0 0 0 0 0 0 0 0 0 0 0 0 0 0 0 0
0 0 0 0 0 0 0 0 0 0 0 0 0 0 0 0 0 0 0 0 0 0 0 0 0 0 0 0 0 0 0 0 0 0 0 0 0 0 0 0 0 0 0
0 0 0 0 0 0 0 0 0 0 0 0 0 0 0 0 0 0 0 0 0 0 0 0 0 0 0 0 0 0 0 0 0 0 0 0 0 0 0 0 0 0 0
0 0 0 0 0 0 0 0 0 0 0 0 0 0 0 0 0 0 0 0 0 0 0 0 0 0 0 0 0 0 0 0 0 0 0 0 0 0 0 0 0 0 0
0 0 0 0 0 0 0 0 0 0 0 0 0 0 0 0 0 0 0 0 0 0 0 0 0 0 0 0 0 0 0 0 0 0 0 0 0 0 0 0 0 0 0
0 0 0 0 0 0 0 0 0 0 0 0 0 0 0 0 0 0 0 0 0 0 0 0 0 0 0 0 0 0 0 0 0 0 0 0 0 0 0 0 0 0 0
0 0 0 0 0 0 0 0 0 0 0 0 0 0 0 0 0 0 0 0 0 0 0 0 0 0 0 0 0 0 0 0 0 0 0 0 0 0 0 0 0 0 0
0 0 0 0 0 0 0 0 0 0 0 0 0 0 0 0 0 0 0 0 0 0 0 0 0 0 0 0 0 0 0 0 0 0 0 0 0 0 0 0 0 0 0
0 0 0 0 0 0 0 0 0 0 0 0 0 0 0 0 0 0 0 0 0 0 0 0 0 0 0 0 0 0 0 0 0 0 0 0 0 0 0 0 0 0 0
0 0 0 0 0 0 0 0 0 0 0 0 0 0 0 0 0 0 0 0 0 0 0 0 0 0 0 0 0 0 0 0 0 0 0 0 0 0 0 0 0 0 0
0 0 0 0 0 0 0 0 0 0 0 0 0 0 0 0 0 0 0 0 0 0 0 0 0 0 0 0 0 0 0 0 0 0 0 0 0 0 0 0 0 0 0
0 0 0 0 0 0 0 0 0 0 0 0 0 0 0 0 0 0 0 0 0 0 0 0 0 0 0 0 0 0 0 0 0 0 0 0 0 0 0 0 0 0 0
0 0 0 0 0 0 0 0 0 0 0 0 0 0 0 0 0 0 0 0 0 0 0 0 0 0 0 0 0 0 0 0 0 0 0 0 0 0 0 0 0 0 0
0 0 0 0 0 0 0 0 0 0 0 0 0 0 0 0 0 0 0 0 0 0 0 0 0 0 0 0 0 0 0 0 0 0 0 0 0 0 0 0 0 0 0
0 0 0 0 0 0 0 0 0 0 0 0 0 0 0 0 0 0 0 0 0 0 0 0 0 0 0 0 0 0 0 0 0 0 0 0 0 0 0 0 0 0 0
0 0 0 0 0 0 0 0 0 0 0 0 0 0 0 0 0 0 0 0 0 0 0 0 0 0 0 0 0 0 0 0 0 0 0 0 0 0 0 0 0 0 0
0 0 0 0 0 0 0 0 0 0 0 0 0 0 0 0 0 0 0 0 0 0 0 0 0 0 0 0 0 0 0 0 0 0 0 0 0 0 0 0 0 0 0
Wind_Speed
5 4 4 3 3 3 3 2 2 2 2 2 2 2 2 2 2 2 2 2 3 3 2 3 2 2 2 1 1 1 1 2 2 1 1 2 2 2 3 2 2 2 3
6 5 4 4 4 3 3 2 2 2 2 2 2 3 2 2 2 2 2 2 3 2 2 2 2 2 2 2 1 1 1 1 2 1 1 2 2 2 2 2 2 2 2
6 6 5 4 4 4 3 3 3 3 2 2 2 2 2 2 2 2 2 2 2 2 2 2 1 2 2 1 1 1 1 1 1 1 1 1 1 2 2 2 3 3 3
6 6 6 5 5 5 4 3 3 3 3 2 2 2 2 2 2 2 2 2 2 1 1 1 1 1 1 1 1 1 1 2 2 1 0 1 1 2 1 1 2 3 3
7 6 6 5 5 4 4 3 3 3 3 2 2 1 1 2 2 3 2 2 2 1 1 1 0 1 1 1 1 1 2 1 1 1 0 1 1 1 1 1 1 2 2
8 7 6 5 5 5 4 4 3 3 2 2 2 2 2 1 3 5 4 2 2 1 0 1 1 1 1 1 1 2 4 3 2 1 1 1 2 2 1 1 0 1 3
8 7 6 6 6 6 5 4 4 3 3 3 2 2 2 2 3 4 5 3 2 2 1 1 0 1 1 1 2 3 2 1 2 3 2 3 2 3 1 1 1 1 2
7 7 7 7 6 6 5 5 4 3 3 3 3 3 2 3 4 4 5 3 2 1 2 2 2 1 1 2 2 1 1 1 1 2 3 3 2 2 3 2 2 1 2
8 8 8 8 7 7 6 5 4 3 3 3 2 3 3 3 4 5 4 2 2 2 2 2 2 2 2 2 2 1 1 2 2 1 0 1 2 2 1 1 1 1 2
9 8 7 8 8 7 7 5 4 3 3 3 2 2 3 3 3 4 5 3 2 1 1 1 2 3 2 2 2 2 1 2 1 2 2 3 3 3 2 1 2 1 1
7 6 6 7 7 7 5 4 4 4 3 3 2 1 2 2 3 3 5 3 3 2 1 1 1 2 2 3 3 3 3 2 0 0 1 2 2 2 1 1 1 2 2
7 7 6 6 6 6 5 4 4 5 4 3 2 1 1 2 2 3 4 5 5 3 2 2 2 2 2 1 1 2 2 1 1 1 1 1 2 2 2 2 2 2 3
7 7 6 6 5 5 6 6 4 4 4 3 2 2 2 1 2 3 4 4 5 3 2 3 2 1 1 0 0 1 0 1 1 0 1 2 2 2 2 2 2 2 2
7 6 6 6 5 4 4 4 4 5 4 4 3 3 2 1 2 1 1 1 2 2 1 1 1 1 1 0 1 1 0 1 2 2 2 2 1 1 1 1 2 2 2
7 6 6 5 5 4 3 3 4 4 6 6 4 4 4 3 4 5 3 2 2 3 2 1 1 1 1 0 0 1 0 0 1 1 1 1 2 2 2 1 1 1 2
7 6 5 4 4 4 4 2 1 2 4 5 5 5 3 4 3 3 4 3 3 4 3 1 1 1 1 1 1 1 1 1 2 2 2 2 2 2 2 2 1 2 3
8 6 5 5 5 4 4 4 2 2 3 2 2 4 4 3 3 2 3 3 3 4 2 1 1 2 2 2 2 2 2 2 2 2 2 2 2 2 2 2 2 3 3
7 7 7 5 5 5 4 4 4 4 2 1 1 1 2 2 2 3 5 5 2 1 1 2 2 2 2 2 2 2 2 2 1 2 2 2 2 2 3 3 3 3 4
6 5 5 5 4 4 4 4 3 3 3 2 1 1 2 3 3 3 4 2 2 1 2 2 2 2 2 2 2 2 2 2 2 2 2 2 2 3 3 3 4 6 5
5 9 8 5 5 4 4 4 4 3 3 2 2 2 1 2 1 1 1 1 2 2 2 2 2 2 2 2 2 2 2 2 2 2 3 3 3 3 4 4 4 4 4
5 6 9 6 5 5 5 4 4 4 4 3 2 2 4 3 2 2 1 2 2 2 2 2 2 2 2 2 2 2 2 2 2 3 3 3 3 3 3 4 4 4 4
5 5 5 5 5 4 4 4 4 4 4 4 2 2 3 2 2 2 1 1 1 1 2 2 2 2 2 2 2 2 2 3 3 3 3 3 3 4 4 3 4 4 4
6 6 5 5 4 5 5 4 4 4 3 3 3 2 2 2 2 2 1 1 1 1 1 1 1 1 1 1 2 2 3 3 3 3 3 3 3 3 3 4 5 5 5
6 7 6 5 5 5 4 4 4 4 4 3 3 2 2 2 2 2 1 1 1 0 0 1 1 2 2 2 2 2 2 3 3 3 3 3 3 3 3 4 4 5 5
6 6 6 5 5 5 5 4 4 4 4 3 3 2 2 2 1 1 1 1 1 0 1 1 1 1 1 2 2 2 3 4 4 3 2 2 3 4 4 5 5 5 5
6 6 5 5 5 5 5 4 4 4 4 3 3 3 2 2 2 1 1 1 1 1 1 1 1 1 2 2 2 3 4 5 5 5 3 2 3 4 4 4 5 5 6
Wind_Direction
166 158 152 158 155 145 149 160 154 139 132 124 123 109 96 87 90 93 87 87 84 67 60 75 63 57 65 67 88 99 104 125 154 286 309 325 349 359 356 2 7 7 3
168 159 161 157 150 150 155 161 151 144 139 132 120 110 105 99 101 109 106 96 96 86 74 78 65 72 63 60 79 94 117 142 151 208 319 337 341 343 345 354 4 9 358
161 160 159 159 159 166 168 160 150 143 132 122 120 127 131 129 125 130 125 113 111 108 102 98 88 89 67 58 70 72 74 89 118 150 283 326 327 343 358 358 3 354 355
163 164 169 177 177 176 168 157 156 150 144 146 148 155 154 145 143 139 124 115 108 96 97 109 118 134 163 149 102 101 97 80 81 91 11 338 328 326 11 358 350 352 346
166 172 182 181 172 163 160 160 155 152 158 159 148 150 154 154 165 156 145 135 129 99 39 357 39 146 158 161 143 156 131 110 96 86 31 354 333 332 325 314 322 326 326
173 182 178 169 166 166 167 161 151 154 156 150 162 168 172 184 162 160 153 144 143 141 146 320 331 345 30 76 126 134 141 143 158 153 192 239 271 262 266 291 330 2 318
178 180 175 173 174 176 168 159 163 167 160 162 181 176 196 210 181 167 165 150 154 171 190 214 345 34 72 83 61 56 60 104 162 167 185 227 242 239 215 256 243 227 254
179 180 176 174 178 172 164 169 175 165 167 182 192 194 201 215 195 182 173 160 163 195 207 204 210 253 182 147 118 79 22 334 275 204 203 228 240 232 202 211 220 255 287
181 184 181 176 174 169 172 179 176 166 178 189 187 189 200 231 206 190 172 154 171 220 232 218 209 223 224 166 135 140 339 318 335 14 235 302 323 325 134 105 64 28 308
190 187 179 174 173 176 181 178 170 172 185 183 189 198 203 228 223 203 180 160 173 213 259 267 237 214 221 181 165 167 223 275 317 357 1 352 347 344 7 163 186 194 262
179 169 169 172 175 176 174 168 162 161 158 166 179 212 219 233 242 218 186 170 180 187 212 255 257 222 222 206 184 188 218 228 216 328 343 340 341 342 338 305 206 192 204
159 163 170 172 173 167 158 159 155 153 155 166 172 233 258 253 242 233 207 196 180 175 205 224 222 197 195 199 197 209 220 147 99 60 5 327 321 314 302 296 272 238 226
154 164 166 161 161 158 158 159 155 157 161 173 177 207 250 259 254 240 225 207 193 186 203 200 192 171 131 1 249 226 191 134 132 140 271 274 269 275 294 309 315 298 287
156 159 154 152 153 156 159 164 165 171 174 179 187 206 229 252 249 233 210 193 180 180 191 151 112 84 88 67 7 350 143 175 179 213 250 267 287 302 305 299 304 314 316
153 153 152 153 154 153 156 172 181 192 187 185 197 193 192 225 235 203 180 186 182 175 134 95 72 65 62 17 351 329 289 225 243 242 246 274 290 295 290 284 282 291 285
151 154 156 153 153 152 146 118 71 162 184 189 186 180 202 215 224 204 193 187 172 152 124 133 179 201 213 223 233 262 256 238 238 238 246 256 272 281 289 293 283 273 277
157 159 155 155 156 157 157 153 141 51 62 104 163 176 180 180 182 173 156 145 144 139 135 173 195 215 225 226 223 226 246 251 238 231 244 257 266 273 278 285 284 284 283
153 155 155 160 160 162 164 163 159 154 140 25 7 117 166 150 141 134 123 105 89 100 171 196 212 222 226 227 229 233 249 265 254 247 252 262 262 268 277 281 278 277 283
153 154 154 152 152 155 153 148 146 148 148 146 101 49 88 109 101 103 112 120 161 191 208 215 220 225 232 235 234 233 235 246 255 255 261 263 264 265 272 276 279 285 284
156 156 151 148 148 145 144 143 146 150 154 158 168 177 132 96 96 93 120 163 179 203 211 217 228 230 232 236 238 238 242 253 260 259 263 266 268 266 272 279 279 282 281
149 152 149 145 153 157 156 158 160 160 165 171 187 186 164 153 166 175 181 193 202 213 217 220 226 230 234 237 239 243 248 260 262 266 269 270 270 268 271 273 277 280 287
149 150 151 153 155 157 159 160 158 159 163 163 165 154 161 146 156 167 185 212 220 215 210 206 222 231 229 232 237 242 254 267 272 270 271 272 273 274 276 278 282 284 287
148 148 147 149 149 151 148 147 151 155 159 163 162 154 155 168 175 181 199 214 211 217 213 197 218 253 263 255 243 237 249 262 265 265 270 278 280 279 278 279 282 288 290
152 153 153 152 149 150 153 155 156 157 159 161 162 163 169 176 181 191 201 199 190 211 216 209 223 242 258 270 269 261 261 268 270 265 262 268 276 280 281 282 283 284 287
153 153 153 155 156 156 156 157 159 160 161 163 163 162 162 159 164 180 189 178 179 201 229 224 233 248 257 264 272 279 290 296 298 294 276 272 280 284 285 285 287 292 291
150 150 151 151 153 155 157 159 161 161 162 163 161 161 163 164 170 183 191 181 186 210 237 244 242 251 272 283 290 305 314 315 313 309 301 280 281 282 286 284 290 291 291